Tracking 28126 objects as of 1-Oct-2023
HD Live streaming from Space Station
objects crossing your sky now

COSMOS 839 DEB

Track COSMOS 839 DEB now!
10-day predictions


NORAD ID: 18471
Int'l Code: 1976-067BN
Perigee: 821.2 km
Apogee: 2,377.6 km
Inclination: 65.8 °
Period: 118.0 minutes
Semi major axis: 7970 km
RCS: 0.0852 m2 (small)
Launch date: July 8, 1976
Source: Commonwealth of Independent States (former USSR) (CIS)
Launch site: PLESETSK MISSILE AND SPACE COMPLEX (PKMTR)

Note: This is SATELLITE DEBRIS
Your satellite tracking list
Your tracking list is empty




NASA's NSSDC Master Catalog

Two Line Element Set (TLE):
1 18471U 76067BN  23267.20058083 -.00000135  00000-0 -16376-3 0  9990
2 18471  65.7613 168.8895 0976398 269.5550 259.5934 12.20069242605725
Source of the keplerian elements: AFSPC